Precipitable_Water
1.16 1.27 1.29 1.34 1.46 1.58 1.54 1.53 1.50 1.58 1.58 1.63 1.51 1.65 1.65 1.58 1.52 1.34 1.27 1.13 0.97 0.89 0.82 0.85 0.85 0.84 0.86 0.85 0.87 0.96 0.96 0.91
1.13 1.18 1.33 1.34 1.44 1.49 1.55 1.54 1.67 1.60 1.61 1.59 1.60 1.76 1.63 1.50 1.34 1.36 1.35 1.05 0.87 0.82 0.80 0.81 0.82 0.81 0.80 0.81 0.87 0.93 0.95 0.91
1.07 1.07 1.21 1.34 1.44 1.44 1.54 1.53 1.60 1.65 1.68 1.63 1.67 1.75 1.66 1.51 1.39 1.42 1.33 0.96 0.84 0.82 0.80 0.81 0.81 0.82 0.77 0.84 0.93 0.96 0.96 0.91
0.99 1.01 1.11 1.30 1.42 1.49 1.59 1.61 1.56 1.63 1.65 1.66 1.56 1.71 1.68 1.57 1.46 1.49 1.27 0.99 0.87 0.84 0.82 0.79 0.82 0.80 0.84 0.96 1.03 1.00 0.99 0.92
0.90 0.96 1.08 1.24 1.37 1.48 1.56 1.61 1.61 1.63 1.58 1.60 1.65 1.65 1.63 1.57 1.53 1.38 1.26 1.02 0.90 0.86 0.81 0.83 0.85 0.82 0.90 0.98 0.99 1.00 0.98 0.94
0.89 0.98 1.07 1.33 1.33 1.42 1.58 1.58 1.64 1.59 1.60 1.64 1.64 1.62 1.59 1.55 1.46 1.30 1.17 1.06 0.95 0.88 0.91 0.97 0.91 0.86 0.93 0.96 0.97 0.99 1.01 0.95
0.89 0.99 1.10 1.33 1.39 1.36 1.54 1.54 1.61 1.61 1.61 1.68 1.64 1.61 1.54 1.49 1.35 1.29 1.19 1.11 1.04 0.99 1.07 0.99 0.94 0.93 0.95 0.95 0.97 0.99 1.01 0.94
0.91 0.96 1.09 1.27 1.27 1.34 1.46 1.54 1.62 1.58 1.60 1.60 1.63 1.59 1.52 1.42 1.35 1.26 1.26 1.17 1.12 1.12 1.09 0.98 0.93 0.93 0.94 0.96 0.97 0.98 0.98 0.93
0.90 0.95 1.06 1.15 1.28 1.28 1.40 1.51 1.48 1.47 1.50 1.53 1.58 1.55 1.49 1.40 1.31 1.26 1.25 1.21 1.18 1.19 1.07 0.97 0.91 0.91 0.91 0.94 0.94 0.93 0.93 0.91
0.91 0.96 1.03 1.13 1.24 1.28 1.33 1.39 1.39 1.43 1.47 1.48 1.51 1.45 1.36 1.29 1.29 1.28 1.31 1.24 1.19 1.12 1.02 0.95 0.91 0.89 0.89 0.92 0.92 0.91 0.89 0.91
0.88 0.93 1.01 1.13 1.24 1.28 1.29 1.34 1.33 1.38 1.44 1.47 1.46 1.37 1.28 1.25 1.24 1.19 1.21 1.14 1.11 1.07 1.00 0.98 0.93 0.91 0.89 0.87 0.88 0.87 0.86 0.86
0.86 0.95 1.09 1.23 1.26 1.26 1.24 1.27 1.29 1.33 1.37 1.36 1.33 1.28 1.24 1.22 1.17 1.12 1.08 1.05 1.07 1.02 0.99 1.02 0.94 0.88 0.83 0.82 0.82 0.82 0.86 0.84
0.86 0.96 1.15 1.24 1.22 1.16 1.16 1.16 1.21 1.24 1.25 1.26 1.27 1.26 1.20 1.15 1.06 1.01 1.05 1.05 0.98 0.98 1.03 0.92 0.86 0.89 0.82 0.84 0.86 0.88 0.89 0.94
0.85 1.00 1.19 1.24 1.26 1.21 1.20 1.21 1.21 1.22 1.24 1.22 1.14 1.11 1.15 1.05 1.08 1.05 1.08 1.03 1.01 1.02 1.00 0.94 0.95 0.98 0.91 0.89 0.82 0.86 0.93 0.96
0.83 1.00 1.15 1.24 1.27 1.30 1.29 1.28 1.27 1.24 1.19 1.11 1.07 1.06 1.05 1.08 1.13 1.09 1.09 1.09 1.11 1.12 1.10 1.05 1.00 1.02 1.05 0.98 0.89 0.85 0.95 1.01
0.85 0.99 1.10 1.22 1.35 1.29 1.25 1.18 1.13 1.17 1.16 1.05 1.12 1.08 1.05 1.07 1.11 1.14 1.10 1.14 1.14 1.16 1.19 1.15 1.11 1.02 1.04 1.02 1.03 1.00 0.86 0.86
0.80 0.93 1.03 1.12 1.22 1.31 1.27 1.18 1.17 1.16 1.14 1.07 1.12 1.15 1.11 1.02 1.14 1.17 1.16 1.18 1.18 1.20 1.16 1.12 1.12 1.03 0.95 0.93 0.90 0.89 0.90 0.80
0.75 0.84 0.95 1.06 1.14 1.27 1.30 1.26 1.19 1.14 1.10 1.08 1.12 1.13 1.14 1.12 1.13 1.16 1.16 1.14 1.16 1.12 1.07 1.02 1.00 0.98 0.97 0.97 0.93 0.88 0.84 0.83
0.70 0.75 0.81 0.95 1.07 1.18 1.29 1.29 1.25 1.19 1.13 1.13 1.07 1.07 1.12 1.14 1.15 1.12 1.12 1.13 1.12 1.07 1.01 1.03 1.02 0.99 0.97 0.94 0.98 0.95 0.94 0.92
0.68 0.71 0.74 0.86 0.96 1.07 1.14 1.19 1.16 1.16 1.19 1.12 1.04 1.06 1.10 1.14 1.14 1.14 1.08 1.09 1.07 1.04 1.03 1.06 1.07 1.05 1.01 0.99 0.97 0.96 0.99 0.97
Wind_Speed
19 20 19 18 18 21 25 26 28 27 26 25 26 32 34 27 25 25 24 22 21 21 20 18 17 16 15 12 9 7 7 7
19 19 18 17 17 18 18 21 22 23 23 21 18 31 36 28 25 27 25 23 22 21 20 19 17 16 15 12 9 7 7 7
19 18 19 18 17 16 16 20 22 19 19 16 19 30 33 28 26 28 25 24 23 21 21 19 17 16 15 13 9 8 7 7
17 18 19 19 18 16 17 22 23 22 19 19 16 28 28 27 28 28 26 25 23 22 21 19 17 16 15 12 9 8 7 7
16 16 18 19 18 16 16 20 24 24 23 21 20 28 29 28 28 27 26 26 25 23 21 19 17 17 15 11 11 9 8 7
15 15 15 16 18 19 17 17 23 23 24 23 22 29 33 31 28 26 27 26 26 24 22 19 17 17 14 12 11 9 9 9
14 13 13 15 17 18 19 20 19 21 24 24 23 33 37 33 30 28 27 26 25 25 22 19 18 17 15 13 11 10 10 10
14 13 13 13 17 18 19 20 20 21 24 25 25 33 37 34 32 29 26 26 25 24 23 20 18 17 15 13 12 11 10 10
14 13 13 13 15 17 19 20 22 21 21 24 30 35 37 36 33 29 27 26 25 23 24 21 19 17 15 14 12 12 11 11
14 13 13 13 15 17 18 19 19 21 21 23 30 38 34 37 32 29 27 25 25 23 23 22 19 17 15 14 13 12 12 12
13 13 13 13 14 15 16 16 16 18 20 26 30 35 36 33 31 30 29 25 25 23 22 21 19 17 16 14 14 13 13 13
13 13 13 12 13 14 14 15 15 17 20 26 30 32 33 32 31 30 28 26 25 24 21 20 19 17 15 14 13 13 13 13
11 11 11 11 14 15 15 17 18 18 19 25 26 29 31 30 30 30 28 25 24 23 21 20 19 17 15 14 13 13 14 14
10 9 9 11 14 16 16 19 19 18 16 23 26 27 27 30 28 29 27 24 24 23 21 19 18 17 15 14 14 14 16 16
9 8 9 11 15 17 18 19 19 18 16 18 23 28 28 28 27 27 25 24 22 22 21 19 17 18 17 13 12 13 13 15
8 8 9 11 17 19 21 20 20 20 19 19 22 25 26 27 26 25 24 24 23 22 21 19 19 18 17 17 16 14 13 13
9 9 10 12 14 20 21 21 21 20 21 21 22 25 26 27 26 24 23 23 23 24 21 20 20 18 17 16 17 17 18 19
10 10 9 12 13 17 22 23 22 22 23 22 23 24 25 26 25 25 23 23 23 23 21 20 20 19 19 18 18 18 18 20
11 11 11 11 13 14 19 19 24 23 24 23 26 25 25 25 25 25 24 23 23 22 22 21 21 21 21 21 21 22 22 23
13 13 12 12 13 14 17 18 20 22 21 23 25 26 26 25 25 24 25 25 24 23 22 22 23 23 24 24 24 25 26 27
Wind_Direction
283 276 272 268 256 253 249 238 234 223 219 237 248 224 201 194 196 192 189 187 185 181 180 181 180 178 179 180 182 192 184 180
285 274 272 263 258 250 249 229 215 220 227 235 235 192 191 193 192 189 184 182 182 182 180 181 180 180 180 183 184 182 180 178
283 273 269 262 256 248 239 219 213 215 209 215 195 194 184 190 188 185 186 184 182 182 182 181 181 181 181 178 183 187 185 191
284 275 269 261 250 244 239 220 214 213 212 216 210 179 187 188 187 187 189 187 186 183 184 183 184 184 184 190 203 195 198 196
286 279 273 259 244 239 232 220 219 222 226 219 214 202 194 190 189 188 190 188 187 185 182 187 190 190 193 207 199 204 204 204
286 282 279 254 241 236 233 227 221 222 218 216 214 206 200 192 191 189 189 188 189 189 191 193 195 194 202 201 204 212 217 217
282 283 280 254 238 237 234 228 225 219 217 224 223 204 195 196 191 188 187 191 194 195 197 196 198 199 203 206 214 222 224 225
277 281 278 261 243 239 233 229 225 224 225 225 207 197 194 193 192 191 192 194 194 198 199 199 200 201 206 213 220 224 228 226
273 277 274 264 244 237 233 230 228 226 223 215 204 194 194 191 192 196 197 197 198 201 200 202 202 204 211 219 225 226 230 227
269 273 273 265 247 237 234 228 225 221 216 205 193 189 192 194 199 197 198 200 200 201 202 202 203 209 216 223 226 229 231 232
266 270 269 264 240 229 221 214 215 207 204 195 190 192 194 198 203 203 203 199 200 201 203 208 210 219 222 224 229 232 233 234
264 267 267 256 225 215 209 203 198 193 189 188 186 190 196 202 205 200 201 203 204 203 207 216 215 216 221 224 228 233 236 240
261 263 259 233 213 206 199 193 186 180 185 188 193 200 200 202 204 205 195 198 203 207 216 212 216 216 216 223 232 237 241 245
260 258 235 215 205 200 194 186 184 189 193 198 197 195 196 194 193 194 198 203 207 209 205 204 209 213 219 230 237 244 247 248
256 242 223 212 202 195 193 194 194 195 192 190 195 192 188 189 191 195 200 202 201 200 204 208 213 219 227 237 240 244 249 250
242 227 219 208 205 202 200 200 199 203 196 189 182 187 190 194 195 197 200 202 204 207 211 217 221 225 229 237 243 252 256 259
231 223 220 209 209 207 203 203 204 198 194 192 193 192 194 196 198 200 205 209 213 211 217 221 224 227 230 238 246 253 259 264
224 218 215 211 210 209 206 206 202 201 202 201 201 197 200 202 204 208 209 210 211 212 220 223 225 230 238 245 251 257 263 267
218 213 211 208 206 201 202 204 202 206 207 208 203 204 204 205 207 209 212 213 213 219 224 227 230 236 243 250 256 262 267 272
214 212 209 205 203 199 196 197 201 203 203 202 203 203 206 208 210 213 215 216 220 224 228 231 236 243 250 255 260 265 268 272